Regional Weather Roundup
Issued by NWS Upton, NY

Current Version | Previous Version | Graphics & Text | Print | Product List | Glossary Off
Versions: 1 2 3 4 5 6 7 8 9 10 11 12 13 14 15 16 17 18 19 20 21 22 23 24 25 26 27 28 29 30 31 32 33 34 35 36 37 38 39 40 41 42 43 44 45 46 47 48 49 50
000 ASUS41 KOKX 020104 RWROKX REGIONAL WEATHER ROUNDUP NATIONAL WEATHER SERVICE NEW YORK NY 900 PM EDT TUE SEP 01 2015 NOTE: "FAIR" INDICATES FEW OR NO CLOUDS BELOW 12,000 FEET WITH NO SIGNIFICANT WEATHER AND/OR OBSTRUCTIONS TO VISIBILITY. NYZ071-072-176-178-NJZ106-104-020200- NEW YORK CITY METRO AREA CITY SKY/WX TMP DP RH WIND PRES REMARKS CENTRAL PARK PTCLDY 79 64 60 VRB3 30.07R LAGUARDIA APRT CLEAR 78 65 63 S8 30.04R KENNEDY INTL PTCLDY 76 67 73 S5 30.06R NEWARK/LIBERTY CLEAR 79 66 64 S6 30.04R BRNX BOT. GARD N/A 75 64 69 E2 30.05R TETERBORO CLEAR 78 62 57 S6 30.03R $$ NYZ177-179-078>081-020200- LONG ISLAND NEW YORK CITY SKY/WX TMP DP RH WIND PRES REMARKS FARMINGDALE CLEAR 76 66 71 SW3 30.05R ISLIP PTCLDY 74 67 78 S6 30.04R SHIRLEY CLEAR 72 69 90 CALM 30.06R WESTHAMPTON CLEAR 67 63 87 CALM 30.07R MONTAUK POINT N/A 73 68 84 CALM 30.07R $$ NYZ052-065-067-020200- HUDSON VALLEY CITY SKY/WX TMP DP RH WIND PRES REMARKS WHITE PLAINS CLEAR 74 65 73 S5 30.06R NEWBURGH CLEAR 72 63 73 CALM 30.06R MONTGOMERY CLEAR 69 65 86 CALM 30.05R POUGHKEEPSIE CLEAR 70 63 78 CALM 30.03R ALBANY PTCLDY 75 63 66 CALM 30.03R $$ NJZ001-105-106-008-010-013-015-019>022-104-020200- NEW JERSEY CITY SKY/WX TMP DP RH WIND PRES REMARKS NEWARK/LIBERTY CLEAR 79 66 64 S6 30.04R TETERBORO CLEAR 78 62 57 S6 30.03R CALDWELL CLEAR 77 63 61 CALM 30.04R MORRISTOWN CLEAR 72 66 83 CALM 30.05R SOMERVILLE CLEAR 76 65 68 CALM 30.03R SUSSEX CLEAR 69 65 86 CALM 30.06R ANDOVER N/A 68 66 93 CALM 30.06R TRENTON CLEAR 78 67 68 S6 30.04R MILLVILLE CLEAR 75 71 87 SE5 30.04R ATLANTIC CITY PTCLDY 76 72 87 SE5 30.05R WRIGHTSTOWN CLEAR 73 68 83 SE5 30.02R TOMS RIVER CLEAR 72 66 83 CALM 30.05R BELMAR MOCLDY 73 64 73 CALM 30.05R $$ PAZ047>061-062-071-020200- EASTERN PENNSYLVANIA CITY SKY/WX TMP DP RH WIND PRES REMARKS PHILADELPHIA PTCLDY 80 70 71 E8 30.04R ALLENTOWN CLEAR 77 66 68 CALM 30.05R SCRANTON CLEAR 74 62 66 E3 30.07R $$ CTZ002-004>006-009-010-012-RIZ004-006-007-MAZ004-011-015-020200- SOUTHERN NEW ENGLAND IN CT CITY SKY/WX TMP DP RH WIND PRES REMARKS BRADLEY INTL CLEAR 77 61 57 CALM 30.03R HARTFORD CLEAR 75 65 70 S6 30.04R DANBURY CLEAR 69 62 78 CALM 30.06R WTRBRY/OXFORD CLEAR 72 59 64 S3 30.08R BRIDGEPORT CLEAR 77 65 66 S5 30.04R MERIDEN CLEAR 73 62 68 CALM 30.04R NEW HAVEN CLEAR 74 66 76 S5 30.05R CHESTER NOT AVBL GROTON CLEAR 71 69 93 CALM 30.05R WILLIMANTIC CLEAR 73 62 68 S3 30.06R IN RI CITY SKY/WX TMP DP RH WIND PRES REMARKS PROVIDENCE CLEAR 71 63 75 S6 30.06R BLOCK ISLAND CLEAR 70 68 94 S6 30.06R WESTERLY CLEAR 68 65 90 CALM 30.06R IN MA CITY SKY/WX TMP DP RH WIND PRES REMARKS BOSTON NOT AVBL WORCESTER CLEAR 69 55 60 NW7 30.07R WESTFIELD CLEAR 69 61 75 CALM 30.04R PROVINCETOWN N/A 66 57 72 S5 30.06R NANTUCKET CLEAR 65 62 90 E6 30.06R $$ ANZ330-335-338-340-345-350-353-355-020200- COASTAL MARINE OBSERVATIONS STATION/POSITION TIME SKY/WX TEMP WIND PRES VSBY WAVE AIR SEA DIR/SP/G HT/PER (UTC) (F) (DEG/KT/KT) (MB) (MI) (FT/S) NY HARB ENTRANCE 2350 76 77 170/ 8/ 8 1016.5 2/ 8 4S FIRE IS NOT AVBL 20S FIRE ISLAND 2350 74 75 130/ 6/ 8 1016.5 2/ 8 GREAT SOUTH BAY 0015 75 79 150/ 8/ 8 N/A 23SW MTP 0050 73 72 160/ 4/ 6 1017.3 2/ 8 HUDSON CANYON NOT AVBL KINGS POINT 0000 78 74 200/ 8/ 10 1016.1 EXECUTION ROCKS 0000 78 180/ 8/ 10 N/A CENTRAL LI SOUND NOT AVBL EASTERN LI SOUND 0000 72 72 200/ 4/ 6 N/A ROBBINS REEF 0000 77 160/ 9/ 11 1015.6 $$ >>>>>>>>>>>>>>>>>>>>>>>>>>>> KEY <<<<<<<<<<<<<<<<<<<<<<<<<<< > < > SKY/WX - SKY CONDITION/PRESENT WEATHER < > TMP - TEMPERATURE IN FAHRENHEIT < > DP - DEWPOINT IN FAHRENHEIT < > RH - RELATIVE HUMIDITY IN PERCENT < > WIND - DIRECTION AND SPEED IN MPH < > PRES - MEAN SEA LEVEL PRESSURE IN INCHES OF HG < > WCI - WIND CHILL INDEX < > VSB - VISIBILITY IN MILES < > HX - HEAT INDEX < > TC - TEMPERATURE IN CELSIUS < > VRB - VARIABLE WIND DIRECTION < > < >>>>>>>>>>>>>>>>>>>>>>>>>>>> KEY <<<<<<<<<<<<<<<<<<<<<<<<<<<

USA.gov is the U.S. government's official web portal to all federal, state and local government web resources and services.